When you browse on this site, cookies collect data to enhance your experience and personalize the content and advertising you see.
Visit our Privacy Policy to learn more. By continuing to use the site, you agree to this use of cookies and data.
  • In Hungary
  • List of Countries
  • For 7 days
  • Water Temperature
  • Weather Map
  • News
  • Weather Widgets
  • user-avatar
    Login

    Hourly Weather Piterka

    Today, 20 October, Sunday

    Time Temperature Precipitation Wind Pressure Humidity
    00:00 +10°C° 0 mm 2 mps 755 mmHg 90%
    01:00 +9°C° 0 mm 2 mps 755 mmHg 91%
    02:00 +9°C° 0 mm 2 mps 755 mmHg 92%
    03:00 +9°C° 0 mm 3 mps 755 mmHg 92%
    04:00 +9°C° 0 mm 3 mps 755 mmHg 93%
    05:00 +9°C° 0 mm 2 mps 755 mmHg 93%
    06:00 +8°C° 0 mm 2 mps 755 mmHg 93%
    07:00 +9°C° 0 mm 3 mps 755 mmHg 89%
    08:00 +10°C° 0 mm 3 mps 755 mmHg 86%
    09:00 +11°C° 0 mm 3 mps 755 mmHg 82%
    10:00 +12°C° 0 mm 3 mps 755 mmHg 78%
    11:00 +13°C° 0 mm 3 mps 755 mmHg 74%
    12:00 +16°C° 0 mm 3 mps 755 mmHg 70%
    13:00 +16°C° 0 mm 3 mps 755 mmHg 70%
    14:00 +16°C° 0 mm 3 mps 755 mmHg 70%
    15:00 +16°C° 0 mm 3 mps 755 mmHg 70%
    16:00 +14°C° 0 mm 3 mps 755 mmHg 75%
    17:00 +13°C° 0 mm 3 mps 755 mmHg 80%
    18:00 +13°C° 0 mm 2 mps 755 mmHg 85%
    19:00 +13°C° 0 mm 2 mps 755 mmHg 87%
    20:00 +12°C° 0 mm 2 mps 755 mmHg 88%
    21:00 +11°C° 0 mm 3 mps 755 mmHg 90%
    22:00 +11°C° 0 mm 3 mps 755 mmHg 90%
    23:00 +12°C° 0 mm 2 mps 755 mmHg 91%

    Tomorrow, 21 October, Monday

    Time Temperature Precipitation Wind Pressure Humidity
    00:00 +10°C° 0 mm 2 mps 755 mmHg 92%
    01:00 +10°C° 0 mm 3 mps 755 mmHg 92%
    02:00 +10°C° 0 mm 3 mps 755 mmHg 92%
    03:00 +10°C° 0 mm 3 mps 755 mmHg 92%
    04:00 +10°C° 0 mm 3 mps 755 mmHg 93%
    05:00 +10°C° 0 mm 3 mps 755 mmHg 93%
    06:00 +9°C° 0 mm 3 mps 754 mmHg 93%
    07:00 +10°C° 0 mm 3 mps 754 mmHg 89%
    08:00 +11°C° 0 mm 4 mps 754 mmHg 86%
    09:00 +12°C° 0 mm 4 mps 754 mmHg 82%
    10:00 +13°C° 0 mm 5 mps 754 mmHg 76%
    11:00 +15°C° 0 mm 5 mps 754 mmHg 70%
    12:00 +16°C° 0 mm 5 mps 754 mmHg 64%
    13:00 +16°C° 0 mm 5 mps 753 mmHg 62%
    14:00 +16°C° 0 mm 5 mps 753 mmHg 61%
    15:00 +17°C° 0 mm 5 mps 753 mmHg 60%
    16:00 +16°C° 0 mm 5 mps 752 mmHg 63%
    17:00 +15°C° 0 mm 5 mps 752 mmHg 66%
    18:00 +14°C° 0 mm 4 mps 752 mmHg 70%
    19:00 +13°C° 0 mm 4 mps 752 mmHg 70%
    20:00 +13°C° 0 mm 4 mps 752 mmHg 71%
    21:00 +13°C° 0 mm 4 mps 752 mmHg 72%
    22:00 +13°C° 0 mm 4 mps 752 mmHg 75%
    23:00 +12°C° 0 mm 3 mps 751 mmHg 79%

    Day after tomorrow, 22 October, Tuesday

    Time Temperature Precipitation Wind Pressure Humidity
    00:00 +12°C° 0 mm 3 mps 751 mmHg 82%
    01:00 +12°C° 0.1 mm 3 mps 752 mmHg 85%
    02:00 +12°C° 0.1 mm 2 mps 752 mmHg 88%
    03:00 +12°C° 0.1 mm 2 mps 752 mmHg 91%
    04:00 +12°C° 0.8 mm 2 mps 752 mmHg 93%
    05:00 +12°C° 0.8 mm 2 mps 752 mmHg 95%
    06:00 +12°C° 0.8 mm 1 mps 753 mmHg 96%
    07:00 +12°C° 0 mm 2 mps 753 mmHg 94%
    08:00 +12°C° 0 mm 2 mps 753 mmHg 92%
    09:00 +11°C° 0 mm 3 mps 754 mmHg 90%
    10:00 +13°C° 0 mm 2 mps 754 mmHg 85%
    11:00 +13°C° 0 mm 2 mps 754 mmHg 80%
    12:00 +14°C° 0 mm 2 mps 754 mmHg 74%
    13:00 +14°C° 0 mm 2 mps 754 mmHg 71%
    14:00 +14°C° 0 mm 2 mps 754 mmHg 68%
    15:00 +14°C° 0 mm 2 mps 754 mmHg 66%
    16:00 +13°C° 0 mm 2 mps 754 mmHg 70%
    17:00 +12°C° 0 mm 1 mps 754 mmHg 75%
    18:00 +11°C° 0 mm 1 mps 755 mmHg 80%
    19:00 +10°C° 0 mm 1 mps 755 mmHg 82%
    20:00 +10°C° 0 mm 1 mps 755 mmHg 83%
    21:00 +8°C° 0 mm 0 mps 755 mmHg 85%
    22:00 +8°C° 0 mm 0 mps 755 mmHg 86%
    23:00 +9°C° 0 mm 1 mps 754 mmHg 87%

    23 October, Wednesday

    Time Temperature Precipitation Wind Pressure Humidity
    00:00 +8°C° 0 mm 1 mps 754 mmHg 87%
    01:00 +8°C° 0 mm 1 mps 754 mmHg 88%
    02:00 +8°C° 0 mm 1 mps 754 mmHg 88%
    03:00 +8°C° 0 mm 1 mps 755 mmHg 88%
    04:00 +7°C° 0 mm 2 mps 754 mmHg 90%
    05:00 +7°C° 0 mm 2 mps 754 mmHg 91%
    06:00 +7°C° 0 mm 2 mps 754 mmHg 92%
    07:00 +8°C° 0 mm 3 mps 754 mmHg 90%
    08:00 +8°C° 0 mm 3 mps 754 mmHg 88%
    09:00 +9°C° 0 mm 3 mps 754 mmHg 86%
    10:00 +11°C° 0 mm 4 mps 753 mmHg 83%
    11:00 +12°C° 0 mm 4 mps 753 mmHg 79%
    12:00 +13°C° 0 mm 4 mps 753 mmHg 76%
    13:00 +14°C° 0 mm 4 mps 752 mmHg 75%
    14:00 +14°C° 0 mm 5 mps 752 mmHg 75%
    15:00 +15°C° 0 mm 5 mps 752 mmHg 75%
    16:00 +14°C° 0 mm 4 mps 751 mmHg 80%
    17:00 +13°C° 0 mm 4 mps 751 mmHg 84%
    18:00 +12°C° 0 mm 4 mps 751 mmHg 89%
    19:00 +12°C° 0 mm 4 mps 751 mmHg 90%
    20:00 +12°C° 0 mm 4 mps 751 mmHg 90%
    21:00 +12°C° 0 mm 4 mps 750 mmHg 90%
    22:00 +11°C° 0 mm 3 mps 750 mmHg 91%
    23:00 +11°C° 0 mm 3 mps 750 mmHg 91%

    24 October, Thursday

    Time Temperature Precipitation Wind Pressure Humidity
    00:00 +11°C° 0 mm 3 mps 750 mmHg 92%
    01:00 +10°C° 0 mm 3 mps 750 mmHg 92%
    02:00 +10°C° 0 mm 2 mps 750 mmHg 93%
    03:00 +10°C° 0 mm 2 mps 750 mmHg 93%
    04:00 +10°C° 0 mm 2 mps 750 mmHg 93%
    05:00 +9°C° 0 mm 2 mps 750 mmHg 93%
    06:00 +9°C° 0 mm 2 mps 750 mmHg 93%
    07:00 +10°C° 0 mm 2 mps 750 mmHg 90%
    08:00 +10°C° 0 mm 2 mps 750 mmHg 87%
    09:00 +12°C° 0 mm 2 mps 750 mmHg 85%
    10:00 +13°C° 0 mm 2 mps 750 mmHg 79%
    11:00 +15°C° 0 mm 2 mps 750 mmHg 73%
    12:00 +16°C° 0 mm 2 mps 750 mmHg 67%
    13:00 +18°C° 0 mm 1 mps 750 mmHg 66%
    14:00 +18°C° 0 mm 1 mps 750 mmHg 65%
    15:00 +18°C° 0 mm 1 mps 750 mmHg 64%
    16:00 +16°C° 0 mm 1 mps 751 mmHg 70%
    17:00 +15°C° 0 mm 1 mps 751 mmHg 75%
    18:00 +13°C° 0 mm 1 mps 751 mmHg 81%
    19:00 +13°C° 0 mm 1 mps 751 mmHg 83%
    20:00 +13°C° 0 mm 1 mps 751 mmHg 85%
    21:00 +12°C° 0 mm 1 mps 751 mmHg 87%
    22:00 +12°C° 0 mm 1 mps 752 mmHg 88%
    23:00 +12°C° 0 mm 1 mps 752 mmHg 89%

    25 October, Friday

    Time Temperature Precipitation Wind Pressure Humidity
    00:00 +10°C° 0 mm 2 mps 752 mmHg 90%
    01:00 +10°C° 0 mm 2 mps 752 mmHg 91%
    02:00 +10°C° 0 mm 2 mps 752 mmHg 92%
    03:00 +10°C° 0 mm 2 mps 752 mmHg 93%
    04:00 +9°C° 0 mm 2 mps 752 mmHg 94%
    05:00 +9°C° 0 mm 2 mps 752 mmHg 94%
    06:00 +9°C° 0 mm 2 mps 752 mmHg 95%
    07:00 +10°C° 0 mm 2 mps 753 mmHg 93%
    08:00 +11°C° 0 mm 1 mps 753 mmHg 91%
    09:00 +12°C° 0 mm 1 mps 753 mmHg 90%
    10:00 +13°C° 0 mm 1 mps 753 mmHg 84%
    11:00 +14°C° 0 mm 2 mps 754 mmHg 79%
    12:00 +16°C° 0 mm 2 mps 754 mmHg 74%
    13:00 +16°C° 0 mm 2 mps 754 mmHg 73%
    14:00 +16°C° 0 mm 2 mps 754 mmHg 72%
    15:00 +16°C° 0 mm 2 mps 754 mmHg 71%
    16:00 +15°C° 0 mm 1 mps 754 mmHg 76%
    17:00 +14°C° 0 mm 1 mps 754 mmHg 81%
    18:00 +13°C° 0 mm 1 mps 754 mmHg 86%
    19:00 +11°C° 0 mm 0 mps 754 mmHg 88%
    20:00 +11°C° 0 mm 0 mps 754 mmHg 89%
    21:00 +11°C° 0 mm 0 mps 754 mmHg 90%
    22:00 +10°C° 0 mm 0 mps 754 mmHg 90%
    23:00 +10°C° 0 mm 0 mps 754 mmHg 90%
    Show more